Location: Katowice
(50.2611°N, 19.0242°E)
Time: 06:21:57
(UTC+02:00)

A-11 Canister half - Visible Passes

Search period start: 22 July 2019 00:00
Search period end: 01 August 2019 00:00
Orbit: 1526 x 1683 km, 47.3° (Epoch: 21 July)

Date Brightness Start Highest point End Pass type
(mag) Time Alt. Az. Time Alt. Az. Time Alt. Az.
22 Jul 8.9 00:15:08 10° W 00:25:01 76° S 00:34:34 10° E visible
22 Jul 9.0 02:20:11 10° W 02:29:34 55° SSW 02:38:38 10° SE visible
22 Jul 9.1 21:48:52 10° SW 21:58:40 61° SSE 22:08:12 10° E visible
22 Jul 9.0 23:53:28 10° W 00:03:23 76° S 00:12:58 10° E visible
23 Jul 9.0 01:58:31 10° W 02:07:58 56° SSW 02:17:07 10° SE visible
23 Jul 9.8 04:04:15 10° W 04:11:25 24° SW 04:18:28 10° S visible
23 Jul 9.2 21:27:16 10° SW 21:37:03 59° SSE 21:46:34 10° E visible
23 Jul 9.0 23:31:48 10° W 23:41:45 76° S 23:51:21 10° E visible
24 Jul 9.0 01:36:51 10° W 01:46:23 58° SSW 01:55:34 10° SE visible
24 Jul 9.7 03:42:31 10° W 03:49:54 26° SW 03:57:08 10° S visible
24 Jul 9.2 21:05:40 10° SW 21:15:27 58° SSE 21:24:57 10° E visible
24 Jul 9.0 23:10:09 10° W 23:20:07 76° S 23:29:45 10° E visible
25 Jul 9.0 01:15:12 10° W 01:24:47 59° SSW 01:34:01 10° SE visible
25 Jul 9.7 03:20:47 10° W 03:28:22 27° SW 03:35:47 10° S visible
25 Jul 9.0 22:48:30 10° W 22:58:29 76° S 23:08:09 10° E visible
26 Jul 9.0 00:53:32 10° W 01:03:10 61° SSW 01:12:28 10° SE visible
26 Jul 9.6 02:59:03 10° W 03:06:50 28° SW 03:14:25 10° S visible
26 Jul 9.0 22:26:49 10° W 22:36:51 76° S 22:46:32 10° E visible
27 Jul 9.0 00:31:52 10° W 00:41:34 62° SSW 00:50:55 10° SE visible
27 Jul 9.6 02:37:20 10° W 02:45:17 30° SW 02:53:02 10° SSE visible
27 Jul 9.1 22:05:10 10° W 22:15:12 76° S 22:24:55 10° E visible
28 Jul 9.0 00:10:12 10° W 00:19:57 63° SSW 00:29:21 10° ESE visible
28 Jul 9.6 02:15:37 10° W 02:23:44 31° SW 02:29:09 18° S visible
28 Jul 9.1 21:43:31 10° WSW 21:53:33 75° S 22:03:19 10° E visible
28 Jul 9.0 23:48:33 10° W 23:58:20 65° SSW 00:07:29 11° ESE visible
29 Jul 9.6 01:53:54 10° W 02:02:11 32° SW 02:05:36 26° S visible
29 Jul 9.1 21:21:51 10° WSW 21:31:55 75° S 21:41:41 10° E visible
29 Jul 9.0 23:26:52 10° W 23:36:43 66° SSW 23:45:11 14° ESE visible
30 Jul 9.5 01:32:12 10° W 01:40:38 34° SW 01:43:21 29° SSW visible
30 Jul 9.2 21:00:12 10° WSW 21:10:16 75° S 21:20:04 10° E visible
30 Jul 9.0 23:05:13 10° W 23:15:06 67° SSW 23:23:22 15° ESE visible
31 Jul 9.5 01:10:30 10° W 01:19:04 35° SW 01:21:34 31° SSW visible
31 Jul 9.1 22:43:33 10° W 22:53:28 68° SSW 23:01:50 15° ESE visible
